Regional Weather Roundup
Issued by NWS

Home | Current Version | Previous Version | Text Only | Print | Product List | Glossary On
Versions: 1 2 3 4 5 6 7 8 9 10 11 12 13 14 15 16 17 18 19 20 21 22 23 24 25 26 27 28 29 30 31 32 33 34 35 36 37 38 39 40 41 42 43 44 45 46 47 48 49 50
000
ASUS43 KDTX 020801
RWRMI
MICHIGAN HOURLY REGIONAL WEATHER ROUNDUP
NATIONAL WEATHER SERVICE DETROIT/PONTIAC MI
300 AM EST MON MAR 02 2015

NOTE: "FAIR" INDICATES FEW OR NO CLOUDS BELOW 12,000 FEET WITH NO
SIGNIFICANT WEATHER AND/OR OBSTRUCTION TO VISIBILITY.

MIZ047>049-052>055-059>063-066>070-074>076-081>083-020900-
SOUTHEAST LOWER MICHIGAN

CITY           SKY/WX    TMP DP  RH WIND       PRES   REMARKS
ADRIAN         CLOUDY    22  15  75 W12       30.28R WCI  10
ALMA           CLEAR     20  12  71 W9        30.24R WCI  10
ANN ARBOR      MOCLDY    21  15  78 W10       30.24R WCI  10
BAD AXE        FLURRIES  23  19  87 W14G21    30.17R WCI  10
CARO           LGT SNOW  23  18  80 W15       30.19R WCI  10
DETROIT CITY   MOCLDY    24  15  68 W7        30.23S WCI  16
DETROIT        FLURRIES  22  15  75 SW8       30.25S WCI  12
FLINT          PTCLDY    23  15  71 W18       30.23R WCI   9
GROSSE ILE     MOCLDY    23  18  80 W7        30.24S WCI  15
HILLSDALE      FLURRIES  21  17  83 W14       30.25S WCI   8
HOWELL         LGT SNOW  23  19  86 W12       30.23R WCI  11

CITY           SKY/WX    TMP DP  RH WIND       PRES   REMARKS
JACKSON        LGT SNOW  21  16  81 W10       30.25R WCI  10
LAMBERTVILLE   CLOUDY    27  19  74 W6        30.28S WCI  20
LANSING        CLOUDY    23  18  81 W9        30.26R WCI  13
LAPEER         FLURRIES  23  17  76 W15G23    30.19S WCI  10
MASON          LGT SNOW  23  19  85 W10       30.25R WCI  12
MONROE         MOCLDY    23  16  74 W9        30.25S WCI  13
MT. CLEMENS    FLURRIES  23  16  74 W9        30.20R WCI  13
PONTIAC        LGT SNOW  22  17  81 W14       30.20R WCI   9
PORT HOPE        N/A     23  18  81 W12G18    30.14R WCI  12
PORT HURON     FLURRIES  21  16  79 SW3       30.20S
TRI CITIES     CLEAR     22  11  62 W12       30.22R WCI  10
TROY           FLURRIES  25  18  73 SW8       30.24S WCI  16
SAGINAW HB     CLEAR     23  12  63 W12       30.22R WCI  12
$$
MIZ043>046-050>051-056>058-064>065-071>073-077>080-020900-
SOUTHWEST LOWER MICHIGAN

CITY           SKY/WX    TMP DP  RH WIND       PRES   REMARKS
BATTLE CREEK   LGT SNOW  24  17  74 W12       30.28R WCI  13
BENTON HARBOR  PTCLDY    22  13  68 NW10G18   30.36R WCI  11
BIG RAPIDS     CLEAR     20  11  67 W7        30.22R WCI  11
COLDWATER      FLURRIES  20  15  82 W12       30.28S WCI   8
FREMONT        FAIR      21   8  57 W10       30.27R WCI   9
HOLLAND        MOCLDY    24  12  60 NW12      30.31R WCI  13
GRAND RAPIDS   PTCLDY    23  10  57 W12       30.28R WCI  12
IONIA          FAIR      23  15  72 W13       30.25R WCI  11
KALAMAZOO      CLOUDY    24  15  68 NW14      30.29R WCI  12
LUDINGTON      CLEAR     24  11  58 NW13G20   30.28R WCI  12
MARSHALL       FLURRIES  20  17  87 W9        30.26S WCI   9
MOUNT PLEASANT CLEAR     19  11  72 W7        30.21S WCI  10
MUSKEGON       PTCLDY    24  11  57 NW14G22   30.31R WCI  12
SOUTH HAVEN    PTCLDY    25  14  63 NW8       30.33S WCI  16
$$
MIZ016>042-020900-
NORTHERN LOWER MICHIGAN

CITY           SKY/WX    TMP DP  RH WIND       PRES   REMARKS
ALPENA         PTCLDY    20  12  71 W7        30.13R WCI  11
BEAVER ISLAND  MOCLDY    20  12  71 W7        30.18R WCI  11
BELLAIRE       MOCLDY    21  12  68 W5        30.20R WCI  15
CADILLAC       CLEAR     15   9  75 W6        30.17R WCI   6
CHARLEVOIX     PTCLDY    19  13  78 W15       30.21R WCI   5
FRANKFORT      PTCLDY    22  13  69 NW14G24   30.24R WCI   9
GAYLORD        MOCLDY    17  12  80 W12G17    30.11R WCI   4
GRAYLING       CLEAR     16  10  80 W6        30.15R WCI   7
HARBOR SPRINGS CLOUDY    17  13  81 SW8       30.16R WCI   7
HOUGHTON LAKE  CLEAR     13   7  77 W7        30.16R WCI   3
MANISTEE       PTCLDY    23  10  58 NW14G26   30.26R WCI  11
OSCODA         CLOUDY    22  14  72 NW10      30.15R WCI  11
PELLSTON       PTCLDY    20  11  68 W15G25    30.15R WCI   6
ROGERS CITY    CLEAR     19  13  76 W9        30.12S WCI   9
TRAVERSE CITY  CLOUDY    20  11  68 W9        30.21R WCI   9
$$
MIZ007>008-015-020900-
EASTERN UPPER MICHIGAN

CITY           SKY/WX    TMP DP  RH WIND       PRES   REMARKS
KINROSS        PTCLDY    16  12  86 W12       30.09R WCI   3
MACKINAC ISLAN CLEAR     18  10  71 W14G24    30.12R WCI   5
NEWBERRY       CLOUDY    18  11  73 NW12G18   30.12R WCI   6
S. S. MARIE    MOCLDY    18  11  74 W13       30.07R WCI   5
MUNISING         N/A     21  10  62 N20G25    30.18R WCI   6
$$
MIZ004>006-011>014-085-020900-
CENTRAL UPPER MICHIGAN

CITY           SKY/WX    TMP DP  RH WIND       PRES   REMARKS
MANISTIQUE     LGT SNOW  19  13  80 W10       30.18R WCI   7
ESCANABA       MOCLDY    14   5  67 W6        30.24R WCI   5
MENOMINEE      CLEAR     16   3  57 W7        30.26R WCI   6
SAWYER-GWINN   PTCLDY    16   8  71 NW12      30.17R WCI   2
$$
MIZ001>003-009>011-084-020900-
WESTERN UPPER MICHIGAN

CITY           SKY/WX    TMP DP  RH WIND       PRES   REMARKS
IRON MOUNTAIN  MOCLDY    15   8  73 W8        30.19R WCI   4
HOUGHTON       PTCLDY    14   3  61 W15       30.19R WCI  -1
COPPER HARBOR    N/A     17   6  62 N16G23    30.19R WCI   2
IRONWOOD       CLOUDY    18   7  62 NW9       30.26R WCI   6
$$

ABBREVIATIONS USED IN REMARKS
   TC - TEMPERATURE IN CELSIUS
  WCI - WIND CHILL INDEX
   HX - HEAT INDEX
  VSB - VISIBILITY




USA.gov is the U.S. government's official web portal to all federal, state and local government web resources and services.